Regional Weather Roundup
Issued by NWS

Home | Current Version | Previous Version | Text Only | Print | Product List | Glossary On
Versions: 1 2 3 4 5 6 7 8 9 10 11 12 13 14 15 16 17 18 19 20 21 22 23 24 25 26 27 28 29 30 31 32 33 34 35 36 37 38 39 40 41 42 43 44 45 46 47 48 49 50
000
ASUS44 KMEG 281710
RWRTN
TENNESSEE HOURLY STATE WEATHER ROUNDUP
NATIONAL WEATHER SERVICE MEMPHIS TN
1100 AM CST WED JAN 28 2015

TNZ002-004-019-021-049-052-054-088>092-281800-
WEST TENNESSEE

CITY           SKY/WX    TMP DP  RH WIND       PRES   REMARKS
MEMPHIS INTL   MOSUNNY   48  28  46 E8        30.29F
NWS MEMPHIS      N/A     47 N/A N/A MISG        N/A
JACKSON        SUNNY     43  27  53 SE7       30.31S
DYERSBURG      SUNNY     43  21  42 SE12      30.32F
UNION CITY     SUNNY     37  30  75 S8        30.30F WCI  31
PARIS          SUNNY     37  27  65 SE9       30.30F WCI  31
LEXINGTON      SUNNY     39  27  60 SE6       30.30F WCI  35
SAVANNAH       SUNNY     43  27  52 SW6       30.32S
$$

TNZ008-025-027-028-033-062-065-066-281800-
NORTH MIDDLE TENNESSEE

CITY           SKY/WX    TMP DP  RH WIND       PRES   REMARKS
NASHVILLE      MOSUNNY   40  22  48 SE7       30.35S
CLARKSVILLE    SUNNY     39  24  55 SE13      30.33S WCI  31
SMYRNA         SUNNY     41  22  47 CALM      30.35F
COOKEVILLE     SUNNY     36  19  51 VRB3      30.31F
CROSSVILLE     SUNNY     35  10  35 VRB6      30.30F WCI  30
$$

TNZ061-075-076-078-094-096-097-281800-
SOUTH MIDDLE TENNESSEE

CITY           SKY/WX    TMP DP  RH WIND       PRES   REMARKS
FAYETTEVILLE   SUNNY     39  25  56 MISG      30.31S
TULLAHOMA      SUNNY     39  21  48 CALM      30.31F
WINCHESTER     SUNNY     43  25  49 CALM      30.30F
MCMINNVILLE    SUNNY     37  19  48 VRB6      30.31F WCI  33
COLUMBIA       SUNNY     41  34  75 E7        30.30F
SHELBYVILLE    SUNNY     41  23  48 VRB5      30.33F
$$

TNZ017-018-042-046-047-281800-
NORTHEAST TENNESSEE

CITY           SKY/WX    TMP DP  RH WIND       PRES   REMARKS
TRI CITIES     SUNNY     30  17  58 CALM      30.31F
ELIZABETHTON   SUNNY     28  12  50 CALM      30.29F
$$

TNZ012-013-036-069-073-074-281800-
CENTRAL EAST TENNESSEE

CITY           SKY/WX    TMP DP  RH WIND       PRES   REMARKS
KNOXVILLE      MOSUNNY   35  16  45 NW7       30.35S WCI  29
OAK RIDGE      SUNNY     35  11  36 CALM      30.36F
GATLINBURG     SUNNY     34  18  51 VRB6      30.33S WCI  29
MORRISTOWN     SUNNY     34  16  47 CALM      30.32F
$$

TNZ083-085-099-281800-
SOUTHEAST TENNESSEE

CITY           SKY/WX    TMP DP  RH WIND       PRES   REMARKS
CHATTANOOGA    SUNNY     41  17  38 NE8       30.35F
$$

SKY/WX REPORTED AS FAIR MEANS FEW OR NO CLOUDS BELOW
12 THOUSAND FEET.



USA.gov is the U.S. government's official web portal to all federal, state and local government web resources and services.